Tracking 22879 objects as of 21-Apr-2021
HD Live streaming from Space Station
objects crossing your sky now

DELTA 1 DEB

Track DELTA 1 DEB now!
10-day predictions


NORAD ID: 7195
Int'l Code: 1973-086FD
Perigee: 853.3 km
Apogee: 1,328.4 km
Inclination: 103.2 °
Period: 106.9 minutes
Semi major axis: 7461 km
RCS: 0.0204 m2 (small)
Launch date: November 6, 1973
Source: United States (US)
Launch site: AIR FORCE WESTERN TEST RANGE (AFWTR)

Note: This is SATELLITE DEBRIS
aabbcc
Your satellite tracking list
Your tracking list is empty




NASA's NSSDC Master Catalog

Two Line Element Set (TLE):
1 07195U 73086FD  21111.41249065 -.00000238  00000-0 -20605-3 0  9994
2 07195 103.1790 168.5967 0318335  70.7204 292.8057 13.46895787300521
Source of the keplerian elements: AFSPC